2006 BZ8

Japanese version
Home page
Total 6,336 html files since Dec. 4, 1995
Updated on December 31, 2006

---------------------------------------------------------------------

* Profile

Designation 2006 BZ8
Discovery Date January 23, 2006
Magnitude 18.1 mag
Discoverer Catalina Sky Survey

* Orbital Elements

Epoch 2006 Sept. 22.0 TT = JDT 2454000.5                MPC
M   2.67969              (2000.0)            P               Q
n   0.03279798     Peri.   82.17487     -0.19374256     +0.98093238
a   9.6658044      Node   183.46091     +0.76976137     +0.16169483
e   0.8036701      Incl.  165.27356     +0.60821974     +0.10782603
P  30.05           H   14.2           G   0.15           U   3

* Magnitudes Graph

        H = 14.2  G = 0.15

---------------------------------------------------------------------

The orbital elements are published on M.P.E.C. 2006-Q21.
The magnitudes graphs are made with Comet for Windows.

---------------------------------------------------------------------

Copyright(C) 1995-2008 Seiichi Yoshida (comet@aerith.net). All rights reserved.